FW5715 Weather Reports


time (UTC)temp
C
wind
direction
speed
KPH
gust
KPH
rain 1hr
cm
rain 24hr
cm
rain mn
cm
humidity
%
barometer
mb
20260504173516 20 180 11.3 29.0 0.00 0.00 0.00 46 1007.5
20260504172516 20 180 16.1 37.0 0.00 0.00 0.00 49 1007.4
20260504171516 20 203 6.4 27.4 0.00 0.00 0.00 46 1007.5
20260504170516 20 180 12.9 33.8 0.00 0.00 0.00 48 1007.8
20260504150536 16 180 9.7 19.3 0.00 0.00 0.00 55 1008.9
20260504140516 15 203 6.4 32.2 0.00 0.00 0.00 57 1009.1
20260504130516 13 180 1.6 12.9 0.00 0.00 0.00 61 1009.4
20260504110516 9 180 9.7 19.3 0.00 0.00 0.00 66 1009.2
20260504100516 9 203 6.4 16.1 0.00 0.00 0.00 64 1009.3
20260504081517 9 180 11.3 19.3 0.00 0.00 0.00 64 1010.3
20260504080518 9 203 9.7 19.3 0.00 0.00 0.00 64 1010.4
20260504050517 8 180 4.8 11.3 0.00 0.00 0.00 62 1012.2
20260504045517 8 180 6.4 12.9 0.00 0.00 0.00 61 1012.3
20260504044517 8 203 4.8 19.3 0.00 0.00 0.00 61 1012.3
20260504043517 8 180 3.2 11.3 0.00 0.00 0.00 61 1012.4
20260504042517 8 203 4.8 16.1 0.00 0.00 0.00 61 1012.4
20260504041517 8 203 1.6 8.0 0.00 0.00 0.00 61 1012.4
20260504040517 8 203 4.8 12.9 0.00 0.00 0.00 61 1012.3
20260504035517 8 180 6.4 12.9 0.00 0.00 0.00 63 1012.5
20260504034517 8 180 6.4 14.5 0.00 0.00 0.00 60 1012.5
20260504033517 9 180 3.2 11.3 0.00 0.00 0.00 59 1012.5
20260504032517 9 203 3.2 11.3 0.00 0.00 0.00 59 1012.6
20260504031517 9 203 1.6 8.0 0.00 0.00 0.00 59 1012.6
20260504030517 9 203 6.4 14.5 0.00 0.00 0.00 58 1012.7
20260504025517 10 180 1.6 11.3 0.00 0.00 0.00 57 1012.6
20260504024537 10 203 4.8 12.9 0.00 0.00 0.00 57 1012.8
20260504023517 10 180 1.6 11.3 0.00 0.00 0.00 56 1012.8
20260504022517 10 180 4.8 12.9 0.00 0.00 0.00 57 1012.7
20260504021517 10 0.0 6.4 0.00 0.00 0.00 56 1012.8
20260504020517 10 0.0 0.0 0.00 0.00 0.00 56 1012.7
20260504015517 10 0.0 3.2 0.00 0.00 0.00 56 1012.5
20260504014517 10 0.0 1.6 0.00 0.00 0.00 55 1012.6
20260504013517 10 0.0 1.6 0.00 0.00 0.00 54 1012.5
20260504012517 11 0.0 4.8 0.00 0.00 0.00 54 1012.3
20260504011517 11 0.0 0.0 0.00 0.00 0.00 53 1012.5
20260504010517 11 0.0 3.2 0.00 0.00 0.00 52 1012.3
20260504005517 11 0.0 8.0 0.00 0.00 0.00 52 1012.3
20260504004517 11 0.0 1.6 0.00 0.00 0.00 51 1012.2
20260504003517 11 0.0 3.2 0.00 0.00 0.00 51 1012.2
20260504002517 12 0.0 9.7 0.00 0.00 0.00 50 1012.2
20260504001517 12 203 1.6 16.1 0.00 0.00 0.00 48 1012.1
20260504000517 12 0.0 9.7 0.00 0.00 0.00 48 1011.9
20260503235517 12 0.0 9.7 0.00 0.00 0.00 47 1012.0
20260503234517 13 248 1.6 11.3 0.00 0.00 0.00 47 1011.9
20260503233517 13 0.0 9.7 0.00 0.00 0.00 47 1011.9
20260503232517 13 0.0 4.8 0.00 0.00 0.00 45 1012.0
20260503231517 13 0.0 1.6 0.00 0.00 0.00 46 1012.0
20260503230517 13 0.0 3.2 0.00 0.00 0.00 45 1012.1
20260503225517 13 180 1.6 16.1 0.00 0.00 0.00 46 1011.9
20260503224517 13 0.0 11.3 0.00 0.00 0.00 46 1012.0
20260503223517 13 248 1.6 19.3 0.00 0.00 0.00 44 1012.0
20260503222517 13 0.0 1.6 0.00 0.00 0.00 46 1012.1
20260503221517 13 203 1.6 12.9 0.00 0.00 0.00 43 1012.1
20260503220517 13 0.0 9.7 0.00 0.00 0.00 44 1012.3
20260503215517 13 270 3.2 17.7 0.00 0.00 0.00 45 1012.2
20260503214516 13 0.0 14.5 0.00 0.00 0.00 46 1012.1
20260503213517 13 0.0 9.7 0.00 0.00 0.00 44 1011.9
20260503212517 14 270 4.8 20.9 0.00 0.00 0.00 42 1011.9
20260503211516 15 225 1.6 16.1 0.00 0.00 0.00 43 1012.0
20260503210517 14 203 4.8 24.1 0.00 0.00 0.00 43 1011.9
20260503205516 15 203 3.2 24.1 0.00 0.00 0.00 40 1012.0
20260503204557 15 248 1.6 19.3 0.00 0.00 0.00 42 1012.1
20260503203516 15 270 3.2 22.5 0.00 0.00 0.00 44 1012.2
20260503202516 13 270 8.0 25.7 0.00 0.00 0.00 40 1012.3
20260503201517 14 270 11.3 25.7 0.00 0.00 0.00 36 1012.4
20260503200517 15 270 1.6 20.9 0.00 0.00 0.00 40 1012.4
20260503195517 14 270 8.0 24.1 0.00 0.00 0.00 38 1012.6
20260503194516 15 270 3.2 22.5 0.00 0.00 0.00 41 1012.9
20260503193516 14 293 3.2 24.1 0.00 0.00 0.00 41 1013.0
20260503192537 13 270 4.8 25.7 0.00 0.00 0.00 42 1013.1
20260503191536 14 270 8.0 27.4 0.00 0.00 0.00 41 1013.4
20260503190516 14 0.0 11.3 0.00 0.00 0.00 46 1013.5
20260503185516 13 270 1.6 11.3 0.00 0.00 0.00 47 1013.4
20260503184537 14 270 1.6 16.1 0.00 0.00 0.00 43 1013.6
20260503183516 13 270 12.9 25.7 0.00 0.00 0.00 43 1013.8
20260503182537 13 0.0 14.5 0.00 0.00 0.00 44 1013.8
20260503181516 13 270 1.6 16.1 0.00 0.00 0.00 45 1014.1
20260503180516 13 270 4.8 16.1 0.00 0.00 0.00 45 1014.3
20260503175516 13 270 1.6 22.5 0.00 0.00 0.00 43 1014.3
20260503174516 13 180 8.0 32.2 0.00 0.00 0.00 46 1014.5